Wind_Speed
47 43 43 43 41 43 41 42 48 56 55 52 47 49 53 54 57 59 61 61 65 66 67 75 80 78 84 88 88 91 91 85 82 75 69 62 58 56 54 53 55 53 48
45 42 41 41 38 40 39 45 51 48 55 40 40 43 45 43 44 40 41 48 55 59 63 68 70 69 75 82 83 82 74 71 75 71 61 68 59 64 64 58 63 68 64
43 41 40 39 36 39 39 44 47 47 42 34 34 39 39 38 37 31 28 32 41 47 54 58 59 60 70 75 76 70 78 83 75 72 61 62 63 69 69 71 69 60 53
39 38 39 36 32 31 34 42 42 43 34 29 30 34 35 33 27 22 16 19 26 37 43 46 48 54 62 70 70 77 86 80 72 68 57 65 62 58 60 58 46 39 49
37 36 37 34 29 33 39 41 37 39 31 25 29 33 33 29 17 14 10 13 19 27 35 39 46 47 51 63 64 66 63 59 61 64 68 69 51 56 61 46 38 38 39
33 34 33 32 33 33 36 37 36 34 32 29 31 30 29 21 18 5 8 11 15 23 29 35 39 40 45 55 61 58 59 62 71 63 62 54 49 61 66 53 51 55 57
28 31 29 28 30 32 35 34 39 30 31 30 27 23 24 23 20 10 3 8 13 15 20 28 31 32 37 43 53 54 54 53 65 77 76 76 68 63 66 67 65 59 61
26 28 26 24 27 28 31 34 32 24 35 30 31 24 22 19 18 15 14 14 14 17 20 25 25 27 32 38 42 45 44 43 46 54 61 61 65 62 54 67 62 64 56
23 25 25 24 27 26 26 30 27 22 32 25 27 26 25 23 20 16 17 19 19 19 19 18 15 15 18 25 32 36 38 35 35 38 43 59 61 59 52 47 49 48 48
21 22 23 23 24 23 23 24 27 23 22 27 29 26 23 25 23 23 26 23 23 17 14 10 8 11 14 21 27 29 33 34 35 30 34 39 54 45 48 40 37 37 37
19 19 17 20 23 23 22 24 25 32 27 26 24 28 19 24 20 15 17 16 18 12 6 5 2 11 14 9 15 14 19 36 33 34 32 37 38 39 39 34 31 27 21
16 16 14 15 19 20 22 26 27 26 29 30 28 24 19 20 20 14 14 12 8 7 2 7 3 6 11 14 17 19 20 22 19 18 19 21 28 34 25 17 16 14 18
13 13 14 14 15 22 25 28 30 32 34 32 36 38 31 33 37 27 21 20 19 16 9 13 16 14 16 20 21 20 21 19 15 10 7 3 2 8 11 13 17 19 23
12 12 14 16 16 18 20 21 23 26 27 29 30 32 32 34 33 33 34 33 32 31 30 29 27 26 24 20 18 18 15 11 9 4 3 5 9 11 14 16 19 23 28
12 11 9 11 12 13 13 14 16 17 19 21 22 23 24 25 26 27 26 27 27 26 25 24 22 19 17 16 15 14 11 9 9 9 11 13 16 19 22 23 26 30 34
9 7 7 6 7 8 8 9 10 11 12 13 15 16 17 18 18 18 18 17 17 18 19 19 18 18 18 19 19 19 18 19 19 21 22 24 25 28 30 30 33 37 39
5 7 9 9 8 9 8 8 8 9 9 9 10 10 10 11 13 14 16 17 18 19 18 18 18 19 21 22 23 25 27 29 31 32 33 33 33 34 35 36 39 42 43
14 13 13 15 16 16 15 14 14 14 15 16 17 18 18 17 17 19 20 22 23 24 25 27 28 29 29 30 32 34 36 38 40 41 41 40 39 39 40 41 43 45 46
20 20 20 21 21 20 19 19 20 21 22 22 22 22 23 25 26 27 28 28 28 29 31 32 33 34 36 37 39 40 42 44 46 47 46 44 43 44 46 48 49 51 52
26 26 26 27 26 27 26 27 27 27 29 30 31 32 33 34 36 37 37 37 38 38 38 38 39 40 40 41 41 42 42 43 43 44 45 48 50 52 53 53 54 56 58
34 32 32 32 33 33 33 34 36 37 37 39 40 41 41 41 42 42 43 43 42 41 41 42 42 43 45 46 47 48 47 47 47 49 51 52 52 54 57 59 62 64 63
42 43 40 40 40 41 41 41 42 43 42 40 38 38 40 42 42 43 43 45 47 47 47 47 47 50 51 51 53 55 55 55 56 56 55 57 58 59 60 62 64 65 65
42 45 45 45 46 46 48 49 46 45 43 44 43 44 47 49 52 51 49 50 50 51 52 53 55 56 56 57 58 59 59 60 60 59 58 59 61 62 63 63 64 66 65
46 45 49 51 51 51 52 53 53 52 51 51 52 52 53 52 54 60 59 58 56 57 59 58 60 61 61 62 63 62 62 63 62 63 62 62 62 64 65 65 66 66 68
51 53 54 52 54 56 57 58 59 58 57 55 57 60 61 59 60 63 63 65 64 64 64 62 63 64 65 65 65 65 64 64 64 63 62 62 64 68 69 68 69 70 68
53 57 57 58 60 60 62 64 63 63 67 67 66 70 66 64 65 68 71 74 68 64 64 65 65 66 65 66 66 67 67 67 67 66 66 67 68 68 70 70 69 69 69
Wind_Direction
316 316 316 314 308 313 316 315 313 313 312 309 300 298 295 294 288 276 266 257 247 242 241 238 234 230 225 224 228 235 231 239 238 242 237 247 239 245 253 256 257 259 267
316 318 318 318 314 320 315 313 318 321 319 310 310 309 308 305 304 284 268 255 245 236 234 233 229 227 223 222 225 231 234 229 231 235 234 239 241 256 252 246 255 259 263
316 319 322 321 324 320 317 323 325 328 328 319 317 319 318 307 308 296 272 257 243 232 226 225 218 223 220 218 220 224 218 221 220 223 233 241 240 242 251 250 254 258 256
319 321 324 325 322 324 328 334 338 339 331 331 327 328 327 323 311 304 277 249 231 223 213 213 213 217 216 213 217 221 228 224 224 223 231 236 240 241 247 263 253 259 259
321 324 326 323 316 330 335 338 346 348 346 337 335 339 340 333 316 299 254 223 205 199 207 207 206 209 211 210 215 223 231 235 229 228 229 235 234 245 248 256 263 261 279
324 326 330 326 328 329 335 344 345 350 352 341 331 336 347 348 350 303 237 213 206 202 202 204 199 197 200 206 214 224 229 231 231 226 219 227 233 245 255 260 265 270 274
327 329 334 333 337 336 338 345 350 356 4 357 349 351 356 14 20 33 194 200 201 199 199 192 190 190 195 203 215 223 231 233 234 237 243 250 234 252 259 270 268 262 267
332 336 341 338 344 346 346 355 360 5 9 11 21 15 15 28 32 53 76 94 122 145 166 167 174 182 193 206 215 227 231 232 242 244 242 246 249 250 256 262 256 257 261
336 345 352 348 343 348 360 8 14 13 12 13 29 36 46 47 51 55 77 94 101 122 137 152 173 195 214 219 221 219 222 231 236 235 240 231 233 245 253 263 258 256 259
342 351 2 7 4 11 15 18 20 6 19 37 41 39 46 51 60 81 74 72 70 78 101 114 152 178 201 214 221 231 234 236 219 214 234 236 235 249 246 242 244 238 235
346 353 11 20 20 26 29 31 24 34 41 32 39 42 50 47 49 60 70 86 74 78 110 88 253 195 193 195 220 229 231 226 216 220 213 208 212 223 236 241 236 237 245
356 4 16 18 22 41 49 55 52 43 44 45 40 40 41 40 44 48 75 44 63 100 135 147 172 187 205 234 218 225 234 212 189 172 165 185 212 225 224 246 268 279 275
14 7 9 22 37 50 55 55 56 55 54 55 55 57 59 63 60 63 68 78 79 83 101 109 111 120 117 117 135 138 142 148 143 109 117 160 241 243 238 240 249 259 267
48 43 36 36 42 47 51 55 57 57 57 58 58 59 57 56 56 55 56 56 58 59 62 63 60 58 56 56 57 57 53 47 46 39 288 267 262 265 267 271 278 281 282
55 58 50 36 33 35 40 45 48 52 55 59 60 59 60 62 62 58 53 49 47 47 48 49 50 51 47 43 39 35 30 14 355 334 313 302 296 295 291 292 291 288 285
19 21 24 21 15 11 14 25 31 34 41 45 45 41 38 37 37 39 39 39 35 29 21 16 13 9 4 360 356 351 345 337 330 322 315 311 305 300 297 295 287 284 287
297 313 327 323 314 313 319 329 340 346 350 354 356 359 3 2 358 356 354 352 350 348 346 343 337 334 332 330 325 321 319 318 316 315 312 309 305 302 297 291 290 291 290
276 282 290 294 297 301 304 307 310 312 313 314 317 321 322 322 321 321 322 322 321 319 318 318 319 318 317 314 312 311 310 309 309 308 305 303 299 294 289 287 286 286 288
267 271 279 287 291 294 295 294 293 294 295 297 300 301 301 302 303 302 300 302 303 304 304 305 304 303 303 303 303 302 301 301 300 300 298 294 290 287 286 285 285 286 288
264 270 276 281 284 287 290 290 290 290 293 297 298 299 300 301 301 301 299 299 299 299 299 299 298 298 297 297 297 296 295 293 291 290 290 289 289 287 285 285 286 287 288
267 269 274 277 279 280 282 284 286 286 289 291 292 294 295 295 295 296 297 298 298 297 298 297 297 298 299 299 298 298 296 292 290 289 288 286 285 285 286 285 286 288 289
272 272 270 273 276 279 281 283 285 286 286 286 286 290 293 295 295 294 293 295 297 297 296 296 296 296 295 295 295 296 295 295 293 292 289 286 288 287 288 287 286 288 290
267 271 271 271 274 279 283 282 280 279 279 279 280 286 288 293 297 293 289 290 290 291 291 290 291 292 292 292 293 294 293 293 292 290 288 287 287 289 289 289 288 289 291
268 269 272 274 277 278 280 282 281 277 278 281 284 287 286 285 289 291 290 288 285 286 286 288 289 289 290 290 292 292 291 291 291 289 287 287 287 288 290 290 290 291 292
268 266 267 268 269 272 273 272 273 276 278 281 281 284 287 286 284 283 285 289 285 284 286 286 287 288 290 291 291 290 290 290 289 289 287 286 287 289 288 289 289 290 292
273 273 268 267 269 269 269 273 276 276 277 278 283 284 281 283 284 285 286 288 286 286 287 286 287 288 288 288 288 289 289 289 288 287 287 287 288 287 287 288 289 291 293
Height
5552 5543 5535 5527 5518 5510 5502 5495 5486 5476 5463 5451 5440 5429 5419 5407 5394 5384 5382 5384 5390 5400 5409 5421 5437 5452 5468 5484 5499 5511 5525 5536 5552 5566 5576 5581 5586 5590 5592 5594 5598 5600 5603
5542 5534 5526 5517 5508 5501 5494 5485 5475 5463 5449 5437 5426 5416 5403 5392 5378 5366 5362 5363 5368 5378 5390 5402 5418 5434 5451 5467 5483 5498 5510 5523 5537 5549 5561 5566 5571 5575 5575 5578 5582 5586 5589
5533 5525 5517 5509 5500 5493 5485 5475 5463 5451 5437 5427 5417 5407 5394 5382 5370 5358 5352 5351 5356 5365 5377 5390 5405 5420 5437 5453 5471 5486 5500 5511 5521 5533 5544 5550 5557 5561 5561 5564 5569 5572 5575
5525 5517 5509 5501 5495 5487 5478 5468 5456 5442 5429 5419 5411 5401 5389 5376 5365 5356 5350 5348 5351 5359 5371 5383 5397 5411 5427 5443 5461 5475 5484 5495 5505 5518 5529 5535 5541 5547 5550 5554 5555 5558 5562
5518 5510 5503 5495 5489 5482 5472 5462 5450 5438 5425 5416 5407 5397 5385 5373 5363 5357 5353 5352 5354 5360 5370 5379 5389 5404 5419 5437 5453 5467 5476 5486 5498 5506 5513 5522 5527 5534 5538 5543 5543 5543 5547
5513 5506 5499 5491 5483 5476 5467 5457 5446 5435 5423 5414 5404 5395 5385 5374 5364 5359 5357 5358 5360 5365 5371 5380 5391 5402 5415 5432 5448 5460 5471 5480 5488 5491 5499 5506 5512 5521 5526 5529 5532 5534 5537
5510 5503 5496 5489 5481 5473 5464 5455 5444 5434 5423 5413 5402 5394 5387 5377 5370 5364 5362 5362 5365 5371 5378 5385 5395 5404 5417 5431 5445 5456 5464 5470 5477 5485 5489 5493 5502 5510 5517 5521 5519 5522 5523
5508 5500 5493 5486 5480 5472 5462 5454 5444 5435 5425 5415 5404 5397 5391 5385 5379 5375 5373 5372 5373 5377 5385 5392 5401 5410 5421 5432 5441 5449 5457 5464 5470 5476 5483 5487 5493 5503 5507 5506 5505 5507 5508
5505 5498 5491 5485 5479 5472 5464 5456 5446 5437 5429 5419 5410 5403 5399 5394 5389 5388 5386 5386 5387 5391 5396 5402 5409 5415 5422 5429 5435 5442 5449 5455 5459 5464 5470 5479 5486 5494 5494 5494 5494 5493 5493
5504 5498 5491 5485 5479 5472 5466 5459 5451 5441 5434 5425 5419 5413 5410 5406 5402 5400 5397 5399 5399 5402 5405 5411 5414 5418 5423 5429 5435 5441 5445 5447 5451 5458 5464 5469 5476 5482 5486 5484 5482 5482 5482
5503 5498 5492 5486 5479 5473 5467 5461 5455 5447 5439 5433 5428 5423 5419 5415 5413 5411 5410 5409 5410 5412 5414 5418 5420 5423 5428 5430 5434 5435 5437 5440 5444 5450 5455 5459 5464 5470 5472 5473 5475 5475 5474
5504 5499 5494 5489 5482 5476 5470 5464 5458 5453 5447 5442 5436 5432 5428 5423 5420 5419 5419 5418 5418 5419 5420 5422 5423 5425 5428 5430 5432 5434 5437 5440 5444 5446 5447 5450 5454 5462 5462 5463 5467 5469 5473
5503 5500 5496 5491 5486 5481 5475 5469 5464 5460 5455 5450 5446 5442 5438 5434 5430 5428 5426 5424 5424 5424 5424 5425 5427 5429 5429 5432 5432 5435 5437 5440 5441 5442 5445 5450 5455 5459 5460 5462 5464 5463 5465
5504 5501 5498 5495 5491 5486 5481 5476 5471 5467 5463 5459 5455 5451 5449 5445 5442 5440 5438 5436 5436 5435 5434 5435 5435 5436 5437 5439 5439 5440 5441 5443 5445 5449 5453 5455 5456 5457 5457 5456 5455 5457 5457
5507 5502 5498 5496 5493 5489 5485 5480 5476 5472 5468 5465 5462 5458 5456 5453 5451 5449 5448 5446 5445 5445 5444 5444 5445 5446 5446 5446 5445 5445 5446 5448 5450 5452 5453 5454 5453 5452 5452 5449 5448 5449 5450
5507 5504 5500 5496 5494 5491 5487 5483 5479 5476 5472 5470 5467 5464 5461 5459 5457 5455 5453 5452 5450 5449 5448 5448 5447 5447 5446 5445 5445 5446 5446 5447 5447 5448 5448 5447 5446 5446 5444 5441 5442 5442 5440
5504 5502 5500 5496 5493 5490 5486 5483 5480 5477 5474 5471 5469 5467 5464 5462 5459 5457 5455 5454 5453 5451 5450 5449 5448 5447 5445 5444 5444 5444 5443 5442 5442 5441 5439 5438 5437 5434 5433 5432 5431 5429 5425
5500 5497 5494 5492 5490 5488 5486 5483 5480 5477 5473 5470 5468 5465 5462 5461 5459 5458 5455 5453 5451 5449 5447 5445 5443 5442 5441 5440 5439 5438 5437 5436 5434 5433 5430 5428 5426 5424 5423 5421 5418 5414 5410
5494 5491 5488 5486 5484 5482 5480 5478 5475 5472 5469 5467 5465 5463 5460 5458 5455 5452 5451 5449 5447 5445 5443 5441 5439 5437 5435 5433 5432 5430 5428 5426 5424 5421 5420 5417 5415 5412 5409 5406 5402 5398 5394
5485 5484 5481 5478 5476 5474 5472 5469 5467 5464 5462 5459 5457 5455 5453 5451 5448 5446 5444 5441 5439 5436 5433 5430 5428 5426 5424 5422 5420 5418 5416 5414 5412 5410 5407 5404 5401 5397 5393 5389 5384 5380 5376
5476 5474 5472 5470 5467 5464 5462 5460 5458 5455 5453 5450 5447 5445 5442 5440 5437 5434 5431 5429 5427 5424 5421 5419 5416 5414 5412 5409 5406 5404 5401 5399 5396 5393 5391 5387 5382 5378 5374 5371 5367 5363 5358
5465 5463 5462 5459 5456 5454 5451 5449 5446 5444 5441 5439 5436 5433 5431 5428 5425 5422 5418 5416 5414 5412 5409 5406 5403 5401 5398 5395 5392 5389 5386 5382 5378 5375 5371 5367 5364 5359 5355 5351 5346 5342 5337
5452 5450 5448 5445 5443 5441 5438 5435 5432 5430 5428 5425 5423 5420 5417 5415 5413 5409 5406 5402 5399 5396 5393 5391 5388 5385 5382 5378 5375 5371 5368 5364 5360 5356 5351 5347 5344 5340 5335 5330 5325 5321 5316
5437 5435 5434 5431 5428 5425 5423 5421 5418 5415 5413 5410 5407 5404 5402 5399 5397 5394 5390 5387 5383 5380 5376 5372 5370 5367 5363 5360 5357 5353 5349 5344 5339 5335 5331 5327 5323 5319 5315 5310 5305 5300 5295
5420 5418 5417 5414 5411 5409 5407 5403 5400 5398 5396 5392 5388 5386 5383 5380 5378 5375 5371 5368 5363 5360 5357 5353 5349 5345 5342 5339 5335 5331 5326 5322 5318 5314 5310 5306 5302 5298 5294 5290 5285 5280 5274
5404 5401 5398 5396 5394 5391 5388 5385 5383 5380 5377 5373 5370 5367 5362 5360 5357 5354 5351 5347 5343 5339 5336 5332 5328 5324 5320 5317 5313 5309 5304 5300 5296 5292 5288 5284 5280 5277 5273 5268 5264 5259 5253